Time,TemperatureF,DewpointF,PressureIn,WindDirection,WindDirectionDegrees,WindSpeedMPH,WindSpeedGustMPH,Humidity,HourlyPrecipIn,Conditions,Clouds,dailyrainin,SoftwareType,DateUTC
2013-07-18 00:02:00,68.0,63.0,30.06,SE,144,0.0,1.0,84,0.00,,,0.00,,2013-07-18 04:02:00,
2013-07-18 00:12:00,68.0,63.0,30.06,SE,144,0.0,1.0,84,0.00,,,0.00,,2013-07-18 04:12:00,
2013-07-18 00:22:00,68.0,63.0,30.04,North,0,0.0,1.0,84,0.00,,,0.00,,2013-07-18 04:22:00,
2013-07-18 00:32:00,68.0,63.0,30.03,North,0,0.0,0.0,84,0.00,,,0.00,,2013-07-18 04:32:00,
2013-07-18 00:43:00,68.0,63.0,30.03,North,0,0.0,0.0,84,0.00,,,0.00,,2013-07-18 04:43:00,
2013-07-18 00:52:00,68.0,63.0,30.03,North,0,0.0,0.0,84,0.00,,,0.00,,2013-07-18 04:52:00,
2013-07-18 01:02:00,68.0,63.0,30.03,SE,135,0.0,0.0,85,0.00,,,0.00,,2013-07-18 05:02:00,
2013-07-18 01:11:00,68.0,63.0,30.03,SE,135,0.0,0.0,85,0.00,,,0.00,,2013-07-18 05:11:00,
2013-07-18 01:22:00,68.0,63.0,30.03,North,0,0.0,0.0,85,0.00,,,0.00,,2013-07-18 05:22:00,
2013-07-18 01:32:00,68.0,64.0,30.03,WNW,292,0.0,0.0,86,0.00,,,0.00,,2013-07-18 05:32:00,
2013-07-18 01:42:00,68.0,64.0,30.03,WNW,292,0.0,0.0,86,0.00,,,0.00,,2013-07-18 05:42:00,
2013-07-18 01:52:00,69.0,65.0,30.04,SE,142,0.0,0.0,86,0.00,,,0.00,,2013-07-18 05:52:00,
2013-07-18 02:01:00,69.0,65.0,30.04,SE,142,0.0,0.0,86,0.00,,,0.00,,2013-07-18 06:01:00,
2013-07-18 02:12:00,69.0,65.0,30.04,SE,142,0.0,0.0,86,0.00,,,0.00,,2013-07-18 06:12:00,
2013-07-18 02:22:00,68.0,65.0,30.06,NW,315,1.0,2.0,89,0.00,,,0.00,,2013-07-18 06:22:00,
2013-07-18 02:32:00,68.0,65.0,30.05,South,180,0.0,0.0,89,0.00,,,0.00,,2013-07-18 06:32:00,
2013-07-18 02:43:00,68.0,65.0,30.05,South,180,0.0,0.0,89,0.00,,,0.00,,2013-07-18 06:43:00,
2013-07-18 02:52:00,68.0,65.0,30.05,NW,311,0.0,0.0,89,0.00,,,0.00,,2013-07-18 06:52:00,
2013-07-18 03:01:00,68.0,65.0,30.05,NW,311,0.0,0.0,89,0.00,,,0.00,,2013-07-18 07:01:00,
2013-07-18 03:12:00,68.0,65.0,30.05,NW,311,0.0,0.0,89,0.00,,,0.00,,2013-07-18 07:12:00,
2013-07-18 03:22:00,68.0,65.0,30.03,SE,135,0.0,1.0,90,0.00,,,0.00,,2013-07-18 07:22:00,
2013-07-18 03:32:00,68.0,65.0,30.03,East,90,0.0,0.0,90,0.00,,,0.00,,2013-07-18 07:32:00,
2013-07-18 03:42:00,68.0,65.0,30.03,East,90,0.0,0.0,90,0.00,,,0.00,,2013-07-18 07:42:00,
2013-07-18 03:52:00,69.0,66.0,30.03,East,90,0.0,1.0,90,0.00,,,0.00,,2013-07-18 07:52:00,
2013-07-18 04:01:00,69.0,66.0,30.02,SE,145,0.0,1.0,90,0.00,,,0.00,,2013-07-18 08:01:00,
2013-07-18 04:11:00,69.0,66.0,30.02,SE,145,0.0,1.0,90,0.00,,,0.00,,2013-07-18 08:11:00,
2013-07-18 04:21:00,69.0,66.0,30.02,NE,47,0.0,1.0,90,0.00,,,0.00,,2013-07-18 08:21:00,
2013-07-18 04:32:00,68.0,65.0,30.02,ESE,112,0.0,0.0,90,0.00,,,0.00,,2013-07-18 08:32:00,
2013-07-18 04:42:00,68.0,65.0,30.02,ESE,112,0.0,0.0,90,0.00,,,0.00,,2013-07-18 08:42:00,
2013-07-18 04:52:00,69.0,66.0,30.02,ENE,68,0.0,0.0,90,0.00,,,0.00,,2013-07-18 08:52:00,
2013-07-18 05:01:00,69.0,66.0,30.02,ENE,68,0.0,0.0,90,0.00,,,0.00,,2013-07-18 09:01:00,
2013-07-18 05:11:00,69.0,66.0,30.02,ENE,68,0.0,0.0,90,0.00,,,0.00,,2013-07-18 09:11:00,
2013-07-18 05:21:00,69.0,66.0,30.01,SE,135,0.0,0.0,90,0.00,,,0.00,,2013-07-18 09:21:00,
2013-07-18 05:32:00,69.0,66.0,30.01,SE,135,0.0,0.0,90,0.00,,,0.00,,2013-07-18 09:32:00,
2013-07-18 05:41:00,69.0,66.0,30.01,SE,135,0.0,0.0,90,0.00,,,0.00,,2013-07-18 09:41:00,
2013-07-18 05:51:00,69.0,66.0,30.02,WNW,292,0.0,0.0,90,0.00,,,0.00,,2013-07-18 09:51:00,
2013-07-18 06:01:00,69.0,66.0,30.00,SW,225,0.0,1.0,90,0.00,,,0.00,,2013-07-18 10:01:00,
2013-07-18 06:11:00,69.0,66.0,30.00,SW,225,0.0,1.0,90,0.00,,,0.00,,2013-07-18 10:11:00,
2013-07-18 06:22:00,69.0,66.0,30.00,SW,225,0.0,1.0,90,0.00,,,0.00,,2013-07-18 10:22:00,
2013-07-18 06:32:00,69.0,66.0,30.02,NW,315,0.0,2.0,91,0.86,,,0.86,,2013-07-18 10:32:00,
2013-07-18 06:43:00,69.0,66.0,30.02,NW,315,0.0,2.0,91,0.86,,,0.86,,2013-07-18 10:43:00,
2013-07-18 06:52:00,69.0,66.0,30.02,NW,315,0.0,2.0,91,0.86,,,0.86,,2013-07-18 10:52:00,
2013-07-18 07:01:00,69.0,66.0,30.02,NW,315,0.0,2.0,91,0.86,,,0.86,,2013-07-18 11:01:00,
2013-07-18 07:11:00,69.0,66.0,30.02,NW,315,0.0,2.0,91,0.86,,,0.86,,2013-07-18 11:11:00,
2013-07-18 07:22:00,69.0,66.0,30.01,North,0,0.0,0.0,91,0.86,,,0.86,,2013-07-18 11:22:00,
2013-07-18 07:32:00,69.0,66.0,30.01,West,270,0.0,0.0,91,0.86,,,0.86,,2013-07-18 11:32:00,
2013-07-18 07:43:00,69.0,66.0,30.01,West,270,0.0,0.0,91,0.86,,,0.86,,2013-07-18 11:43:00,
2013-07-18 07:52:00,69.0,66.0,30.00,SSW,202,0.0,0.0,91,0.00,,,0.86,,2013-07-18 11:52:00,
2013-07-18 08:02:00,69.0,66.0,30.00,South,171,0.0,0.0,91,0.00,,,0.86,,2013-07-18 12:02:00,
2013-07-18 08:11:00,69.0,66.0,30.00,South,171,0.0,0.0,91,0.00,,,0.86,,2013-07-18 12:11:00,
2013-07-18 08:22:00,69.0,66.0,30.00,SSE,158,12.0,58.0,91,0.00,,,0.86,,2013-07-18 12:22:00,
2013-07-18 08:32:00,69.0,66.0,29.99,South,180,0.0,0.0,91,0.00,,,0.86,,2013-07-18 12:32:00,
2013-07-18 08:42:00,69.0,66.0,29.99,South,180,0.0,0.0,91,0.00,,,0.86,,2013-07-18 12:42:00,
2013-07-18 08:52:00,70.0,67.0,29.99,SE,135,0.0,0.0,91,0.00,,,0.86,,2013-07-18 12:52:00,
2013-07-18 09:01:00,70.0,67.0,29.99,SE,135,0.0,0.0,91,0.00,,,0.86,,2013-07-18 13:01:00,
2013-07-18 09:11:00,70.0,67.0,29.99,SE,135,0.0,0.0,91,0.00,,,0.86,,2013-07-18 13:11:00,
2013-07-18 09:22:00,70.0,67.0,30.00,SE,135,0.0,0.0,91,0.00,,,0.86,,2013-07-18 13:22:00,
2013-07-18 09:32:00,70.0,67.0,30.00,SE,135,0.0,0.0,91,0.00,,,0.86,,2013-07-18 13:32:00,
2013-07-18 09:43:00,70.0,67.0,30.00,SE,135,0.0,0.0,91,0.00,,,0.86,,2013-07-18 13:43:00,
2013-07-18 09:53:00,71.0,68.0,29.99,ENE,68,1.0,1.0,91,0.00,,,0.86,,2013-07-18 13:53:00,
2013-07-18 10:02:00,71.0,68.0,29.98,SSE,158,0.0,1.0,91,0.00,,,0.86,,2013-07-18 14:02:00,
2013-07-18 10:11:00,71.0,68.0,29.98,SSE,158,0.0,1.0,91,0.00,,,0.86,,2013-07-18 14:11:00,
2013-07-18 10:22:00,71.0,68.0,29.98,SE,135,28.0,58.0,91,0.00,,,0.86,,2013-07-18 14:22:00,
2013-07-18 10:33:00,71.0,68.0,29.98,South,180,0.0,0.0,91,0.18,,,1.04,,2013-07-18 14:33:00,
2013-07-18 10:43:00,71.0,68.0,29.98,South,180,0.0,0.0,91,0.18,,,1.04,,2013-07-18 14:43:00,
2013-07-18 10:53:00,71.0,68.0,29.98,SE,135,0.0,1.0,91,0.18,,,1.04,,2013-07-18 14:53:00,
2013-07-18 11:01:00,70.0,67.0,29.96,ESE,112,0.0,1.0,91,0.18,,,1.04,,2013-07-18 15:01:00,
2013-07-18 11:11:00,70.0,67.0,29.96,ESE,112,0.0,1.0,91,0.18,,,1.04,,2013-07-18 15:11:00,
2013-07-18 11:22:00,70.0,67.0,29.96,SE,135,2.0,2.0,91,0.18,,,1.04,,2013-07-18 15:22:00,
2013-07-18 11:32:00,71.0,69.0,29.95,SSE,158,0.0,1.0,92,0.00,,,1.04,,2013-07-18 15:32:00,
2013-07-18 11:43:00,71.0,69.0,29.95,SSE,158,0.0,1.0,92,0.00,,,1.04,,2013-07-18 15:43:00,
2013-07-18 11:53:00,73.0,70.0,29.94,ESE,112,1.0,1.0,91,0.24,,,1.28,,2013-07-18 15:53:00,
2013-07-18 12:01:00,75.0,72.0,29.94,ENE,68,0.0,2.0,91,0.24,,,1.28,,2013-07-18 16:01:00,
2013-07-18 12:11:00,75.0,72.0,29.94,ENE,68,0.0,2.0,91,0.24,,,1.28,,2013-07-18 16:11:00,
2013-07-18 12:22:00,77.0,73.0,29.93,WNW,292,0.0,3.0,88,0.24,,,1.28,,2013-07-18 16:22:00,
2013-07-18 12:42:00,78.0,73.0,29.93,SE,135,0.0,0.0,86,0.24,,,1.28,,2013-07-18 16:42:00,
2013-07-18 13:11:00,81.0,73.0,29.90,SE,135,2.0,5.0,78,0.00,,,1.28,,2013-07-18 17:11:00,
2013-07-18 14:11:00,85.0,75.0,29.85,SE,135,0.0,6.0,73,0.00,,,1.28,,2013-07-18 18:11:00,
2013-07-18 14:43:00,87.0,76.0,29.82,SSE,151,1.0,23.0,69,0.00,,,1.28,,2013-07-18 18:43:00,
2013-07-18 15:11:00,88.0,75.0,29.80,East,90,2.0,3.0,65,0.00,,,1.28,,2013-07-18 19:11:00,
2013-07-18 15:22:00,88.0,75.0,29.80,SW,225,3.0,3.0,65,0.00,,,1.28,,2013-07-18 19:22:00,
2013-07-18 15:32:00,88.0,76.0,29.78,SSE,147,1.0,32.0,67,0.00,,,1.28,,2013-07-18 19:32:00,
2013-07-18 15:43:00,88.0,76.0,29.78,SSE,147,1.0,32.0,67,0.00,,,1.28,,2013-07-18 19:43:00,
2013-07-18 15:53:00,89.0,76.0,29.77,NW,311,6.0,45.0,65,0.00,,,1.28,,2013-07-18 19:53:00,
2013-07-18 16:02:00,89.0,76.0,29.76,NW,315,1.0,55.0,65,0.00,,,1.28,,2013-07-18 20:02:00,
2013-07-18 16:11:00,89.0,76.0,29.76,NW,315,1.0,55.0,65,0.00,,,1.28,,2013-07-18 20:11:00,
2013-07-18 16:22:00,88.0,75.0,29.77,NW,313,1.0,2.0,65,0.00,,,1.28,,2013-07-18 20:22:00,
2013-07-18 16:32:00,84.0,74.0,29.75,NW,315,0.0,9.0,72,0.00,,,1.28,,2013-07-18 20:32:00,
2013-07-18 16:43:00,84.0,74.0,29.75,NW,315,0.0,9.0,72,0.00,,,1.28,,2013-07-18 20:43:00,
2013-07-18 16:52:00,84.0,75.0,29.74,SSE,158,1.0,1.0,74,0.00,,,1.28,,2013-07-18 20:52:00,
2013-07-18 17:01:00,85.0,74.0,29.73,NW,315,1.0,5.0,70,0.04,,,1.32,,2013-07-18 21:01:00,
2013-07-18 17:11:00,85.0,74.0,29.73,NW,315,1.0,5.0,70,0.04,,,1.32,,2013-07-18 21:11:00,
2013-07-18 17:22:00,86.0,75.0,29.72,SE,135,2.0,22.0,70,0.04,,,1.32,,2013-07-18 21:22:00,
2013-07-18 17:32:00,86.0,74.0,29.70,WSW,248,2.0,3.0,67,0.04,,,1.32,,2013-07-18 21:32:00,
2013-07-18 17:43:00,86.0,74.0,29.70,WSW,248,2.0,3.0,67,0.04,,,1.32,,2013-07-18 21:43:00,
2013-07-18 18:01:00,87.0,73.0,29.70,WSW,243,2.0,2.0,63,0.00,,,1.32,,2013-07-18 22:01:00,
2013-07-18 18:11:00,87.0,73.0,29.70,WSW,243,2.0,2.0,63,0.00,,,1.32,,2013-07-18 22:11:00,
2013-07-18 18:22:00,86.0,72.0,29.70,West,270,3.0,3.0,64,0.00,,,1.32,,2013-07-18 22:22:00,
2013-07-18 18:32:00,85.0,72.0,29.71,West,270,1.0,2.0,65,0.00,,,1.32,,2013-07-18 22:32:00,
2013-07-18 18:43:00,85.0,72.0,29.71,West,270,1.0,2.0,65,0.00,,,1.32,,2013-07-18 22:43:00,
2013-07-18 18:53:00,81.0,69.0,29.73,WNW,292,2.0,3.0,67,0.00,,,1.32,,2013-07-18 22:53:00,
2013-07-18 19:02:00,76.0,67.0,29.75,NW,315,1.0,3.0,73,0.00,,,1.32,,2013-07-18 23:02:00,
2013-07-18 19:11:00,76.0,67.0,29.75,NW,315,1.0,3.0,73,0.00,,,1.32,,2013-07-18 23:11:00,
2013-07-18 19:22:00,73.0,65.0,29.73,SW,225,1.0,6.0,77,0.00,,,1.32,,2013-07-18 23:22:00,
2013-07-18 19:32:00,73.0,65.0,29.73,SW,225,1.0,6.0,77,0.00,,,1.32,,2013-07-18 23:32:00,
2013-07-18 19:42:00,73.0,65.0,29.73,SW,225,1.0,6.0,77,0.00,,,1.32,,2013-07-18 23:42:00,
2013-07-18 19:52:00,71.0,66.0,29.71,NE,45,0.0,1.0,83,0.37,,,1.69,,2013-07-18 23:52:00,
2013-07-18 20:01:00,70.0,65.0,29.68,West,270,1.0,2.0,85,0.37,,,1.69,,2013-07-19 00:01:00,
2013-07-18 20:11:00,70.0,65.0,29.68,West,270,1.0,2.0,85,0.37,,,1.69,,2013-07-19 00:11:00,
2013-07-18 20:22:00,70.0,66.0,29.66,West,271,0.0,2.0,86,0.37,,,1.69,,2013-07-19 00:22:00,
2013-07-18 20:32:00,71.0,67.0,29.65,North,0,0.0,0.0,87,0.37,,,1.69,,2013-07-19 00:32:00,
2013-07-18 20:43:00,71.0,67.0,29.65,North,0,0.0,0.0,87,0.37,,,1.69,,2013-07-19 00:43:00,
2013-07-18 20:52:00,71.0,67.0,29.65,SE,135,0.0,0.0,87,0.00,,,1.69,,2013-07-19 00:52:00,
2013-07-18 21:01:00,71.0,67.0,29.65,SE,135,0.0,0.0,87,0.00,,,1.69,,2013-07-19 01:01:00,
2013-07-18 21:11:00,71.0,67.0,29.65,SE,135,0.0,0.0,87,0.00,,,1.69,,2013-07-19 01:11:00,
2013-07-18 21:22:00,71.0,67.0,29.67,SSE,158,0.0,1.0,88,0.00,,,1.69,,2013-07-19 01:22:00,
2013-07-18 21:32:00,71.0,67.0,29.66,SSE,158,0.0,1.0,88,0.00,,,1.69,,2013-07-19 01:32:00,
2013-07-18 21:42:00,71.0,67.0,29.66,SSE,158,0.0,1.0,88,0.00,,,1.69,,2013-07-19 01:42:00,
2013-07-18 21:52:00,71.0,67.0,29.65,South,180,0.0,0.0,88,0.00,,,1.69,,2013-07-19 01:52:00,
2013-07-18 22:01:00,71.0,67.0,29.65,South,180,0.0,0.0,88,0.00,,,1.69,,2013-07-19 02:01:00,
2013-07-18 22:11:00,71.0,67.0,29.65,South,180,0.0,0.0,88,0.00,,,1.69,,2013-07-19 02:11:00,
2013-07-18 22:22:00,71.0,68.0,29.64,NNE,22,0.0,1.0,89,0.00,,,1.69,,2013-07-19 02:22:00,
2013-07-18 22:32:00,71.0,68.0,29.64,NNE,22,0.0,1.0,89,0.00,,,1.69,,2013-07-19 02:32:00,
2013-07-18 22:43:00,71.0,68.0,29.64,NNE,22,0.0,1.0,89,0.00,,,1.69,,2013-07-19 02:43:00,
2013-07-18 22:52:00,71.0,68.0,29.65,NW,315,0.0,1.0,90,0.00,,,1.69,,2013-07-19 02:52:00,
2013-07-18 23:01:00,71.0,68.0,29.65,NW,315,0.0,1.0,90,0.00,,,1.69,,2013-07-19 03:01:00,
2013-07-18 23:11:00,71.0,68.0,29.65,NW,315,0.0,1.0,90,0.00,,,1.69,,2013-07-19 03:11:00,
2013-07-18 23:22:00,71.0,68.0,29.65,WNW,292,0.0,0.0,90,0.00,,,1.69,,2013-07-19 03:22:00,
2013-07-18 23:32:00,71.0,67.0,29.73,NW,315,5.0,9.0,88,0.00,,,1.69,,2013-07-19 03:32:00,
2013-07-18 23:43:00,71.0,67.0,29.73,NW,315,5.0,9.0,88,0.00,,,1.69,,2013-07-19 03:43:00,
2013-07-18 23:52:00,69.0,65.0,29.75,WNW,292,3.0,5.0,87,0.00,,,1.69,,2013-07-19 03:52:00,